Showing default

CENTISPACE-1 S10, 62579

Orbit data source: Space-Track

CENTISPACE-1 S10, 62579 is a payload satellite owned by Centispace (CN) in LEO that was launched on Mon, 13 Jan 2025 UTC via a JIELONG-3 launch vehicle from the Yellow Sea Launch Area, China (YSLA). Payloads include a variety of satellites, spacecraft, and rockets equipped with specific instruments for various scientific and technological missions. These include communications satellites like Starlink; space stations such as the ISS; scientific satellites like the Hubble; Earth observation satellites from companies like Planet Labs, Umbra, and HawkEye 360; GPS; miniature CubeSats for education and research; and military/defense satellites.

Loading next visibility...
CENTISPACE-1 S10 details
Identifier
62579, 2025-007E
Orbit
LEO
Last TLE update9 hours ago
Origin
Flag of CNCentispace (CN / PRC)
ManufacturerDFH Shenzhen
MissionOperational spacecraft
Bus & MotorWK01, Unknown motor
Mass160 kg wet, 160 kg dry
Launch date (UTC)
2025-01-13 (3 weeks ago)
Launch vehicle
JIELONG-3
Launch site
Yellow Sea Launch Area, China (YSLA)
Object type
Payload
Rocket body
Debris
Shape & HBRUnknown
Radar Cross SectionLarge (>1 m²)

Expand to show TLE details & history

TLE from 9 hours ago
0 CENTISPACE-1 S10
1 62579U 25007E   25035.80873567  .00003624  00000-0  56240-3 0  9997
2 62579  54.9868  35.7255 0011113 358.1214   1.9742 14.75176767  3343
Epoch: 2025-02-04T19:24Z
Definitive object data (Epoch: 2025-02-04T19:24:34.761Z)
Latitude-0.00003°
Longitude-30.62807°
Altitude637.858 km
Speed7.544 km/s
True Right ascension02h 22m 54s
True Declination0° 00' 00"
Sunlit
Object was in daylight at TLE epoch
Visualization TLE readout
Latitude30.44748°
Longitude123.70282°
Altitude652.764 km
Speed7.532 km/s
Apparent Right ascension15h 04m 52s
Apparent Declination-3° 39' 27"
Sunlit
Object is in full shadow
Visualization observer readout
Local Sidereal Time06:12:39
Azimuth61.969° ENE
Elevation-34.297°
Doppler factor1
Orbital elements
Apogee altitude652.36 km
Perigee altitude636.751 km
Semi-major axis7,022.693 km
Eccentricity0.0011113
Inclination54.9868°
RAAN35.7255°
Arg. of periapsis358.1214°
True anomaly1.97859°
Mean anomaly1.9742°
Eccentric anomaly1.9764°
Mean motion3.68797 °/min
BSTAR0.0005624
Orbital period97.61 mins
Loading maneuver chart data...
Loading historical data...
Loading historical data...
Loading historical data...
Loading historical data...
Loading historical data...
Loading historical data...
Loading historical data...

CENTISPACE-1 S10 Visibility forecast

Observer location: undefined°, undefined

Span
Click to sort rows by Start time (UTC) header in descending order
Start Az.
Max El. time (UTC)
Max El. Az.
Max El.
End time (UTC)
End Az.
4 mins2025-02-05 05:29:51.478Z321.687° NNW2025-02-05 05:31:51.478Z347.607° N13.029°2025-02-05 05:33:51.478Z14.6° NNE
4 mins2025-02-05 07:13:51.478Z353.05° N2025-02-05 07:14:51.478Z7.128° NNE14.287°2025-02-05 07:17:51.478Z47.808° ENE
7 mins2025-02-05 08:54:51.478Z332.51° NNW2025-02-05 08:57:51.478Z33° NE33.016°2025-02-05 09:01:51.478Z103.275° ESE
6 mins2025-02-05 10:36:51.478Z282.707° WNW2025-02-05 10:38:51.478Z245.545° WSW28.499°2025-02-05 10:42:51.478Z172.206° S
7 mins2025-02-06 02:29:51.478Z236.877° WSW2025-02-06 02:32:51.478Z313.99° NW43.554°2025-02-06 02:36:51.478Z42.57° NE
|